This demonstration page uses our WeatherBlox Daily Observations layout. Learn more.

Left ArrowRight Arrow

31.31129, -92.44514

Hourly Observations for December 5, 2015

Temp ( °F °C ) Dew Point ( °F °C ) Humidity (%) Winds ( mph kmh ) Pressure ( in mb ) Visibility ( mi km ) Precip ( " mm )
12:53 am 00:53 Clear 39 3.9 36 2.2 89 89 NE 5 7 30.48 1032 10 16 0.00 0.00
1:53 am 01:53 Clear 37 2.8 35 1.7 93 93 Calm 30.48 1032 10 16 0.00 0.00
2:53 am 02:53 Clear 37 2.8 36 2.2 96 96 Calm 30.48 1032 10 16 0.00 0.00
3:53 am 03:53 Clear 34 1.1 33 0.6 97 97 Calm 30.48 1032 8 13 0.00 0.00
4:53 am 04:53 Clear 34 1.1 33 0.6 97 97 Calm 30.48 1032 7 11 0.00 0.00
5:53 am 05:53 Clear 33 0.6 33 0.6 100 100 W 3 6 30.50 1033 7 11 0.00 0.00
6:53 am 06:53 Clear 33 0.6 32 0 96 96 Calm 30.50 1033 7 11 0.00 0.00
7:53 am 07:53 Sunny with Mist and Fog 36 2.2 36 2.2 100 100 Calm 30.51 1033 6 10 0.00 0.00
8:53 am 08:53 Sunny 45 7.2 39 3.9 80 80 E 3 6 30.51 1033 10 16 0.00 0.00
9:53 am 09:53 Sunny 51 10.6 38 3.3 61 61 SE 3 6 30.51 1033 10 16 0.00 0.00
10:53 am 10:53 Sunny 56 13.3 37 2.8 49 49 Calm 30.50 1033 10 16 0.00 0.00
11:53 am 11:53 Sunny 59 15 37 2.8 44 44 Calm 30.48 1032 10 16 0.00 0.00
12:53 pm 12:53 Sunny 62 16.7 36 2.2 38 38 NE 5 7 30.43 1031 10 16 0.00 0.00
1:53 pm 13:53 Sunny 64 17.8 34 1.1 33 33 Calm 30.41 1030 10 16 0.00 0.00
2:53 pm 14:53 Sunny 64 17.8 33 0.6 32 32 VRB 5 7 30.40 1029 10 16 0.00 0.00
3:53 pm 15:53 Sunny 64 17.8 33 0.6 32 32 E 3 6 30.40 1029 10 16 0.00 0.00
4:53 pm 16:53 Sunny 58 14.4 34 1.1 41 41 E 5 7 30.40 1030 10 16 0.00 0.00
5:53 pm 17:53 Clear 50 10 37 2.8 61 61 Calm 30.41 1030 10 16 0.00 0.00
6:53 pm 18:53 Clear 49 9.4 37 2.8 64 64 Calm 30.42 1030 10 16 0.00 0.00
7:53 pm 19:53 Clear 46 7.8 38 3.3 73 73 Calm 30.42 1030 10 16 0.00 0.00
8:53 pm 20:53 Clear 46 7.8 40 4.4 79 79 E 6 9 30.41 1030 10 16 0.00 0.00
9:53 pm 21:53 Clear 44 6.7 41 5 89 89 W 3 6 30.42 1030 9 14 0.00 0.00
10:53 pm 22:53 Clear 42 5.6 40 4.4 92 92 NW 3 6 30.43 1030 10 16 0.00 0.00
11:53 pm 23:53 Clear 41 5 40 4.4 96 96 Calm 30.42 1030 9 14 0.00 0.00

Powered by AerisWeather